RH
5 6 6 7 7 7 7 7 7 7 7 7 7 8 8 8 8 9 9 9 8 8 8 7 7 6 6 6 7 12 14 15 14 15 13 5 4 5 8 14 16 20 20 20 20 18 32 51 58 62 67 70 65 60 55 52 50 52 61 68 67 62 51 40 34 28 21 18 19 26 34 40 43 44 48 51 54 58 61 60 59 59 56 63 72 75 77 82
5 5 5 6 6 6 7 7 7 7 7 7 7 7 7 7 7 8 8 9 9 9 9 8 8 8 7 7 5 7 10 12 13 13 11 8 7 5 7 12 16 20 19 18 18 15 26 42 54 61 65 66 62 57 53 48 47 51 60 65 60 53 42 31 28 25 21 18 18 29 36 39 43 45 46 49 53 54 58 60 60 62 64 68 72 74 78 83
6 5 5 5 5 5 6 6 7 7 7 7 7 7 7 7 7 7 7 8 8 8 9 9 9 8 8 8 7 6 7 8 10 11 13 12 9 5 6 12 17 19 18 17 16 14 14 22 46 61 61 60 58 54 50 45 44 45 50 59 54 42 35 30 27 23 20 19 16 27 36 38 42 42 43 46 47 50 56 60 60 64 67 71 74 75 80 85
9 8 6 6 6 5 5 5 5 6 6 7 7 7 7 7 7 7 7 7 8 8 8 8 8 9 8 8 8 7 7 8 9 14 16 11 7 4 5 13 18 17 16 14 13 17 15 21 47 60 55 56 54 49 44 42 42 41 45 50 43 35 35 30 25 19 19 19 15 24 35 39 40 40 42 44 48 51 54 57 57 63 68 71 76 78 81 85
11 11 9 8 7 7 6 5 5 5 5 6 6 7 7 7 7 7 7 7 7 7 7 8 8 8 8 8 8 7 7 9 12 16 14 10 7 4 5 13 18 17 16 15 14 23 30 31 43 53 51 51 51 46 40 38 38 39 42 40 34 32 33 27 21 18 18 19 17 23 34 38 38 38 40 43 49 49 51 55 53 58 66 69 74 78 81 84
13 13 12 10 9 9 8 7 6 5 5 5 5 5 6 6 7 7 7 7 7 7 6 7 7 7 7 8 8 7 8 10 12 15 14 12 12 8 8 12 15 16 16 18 15 20 34 36 37 45 48 46 47 45 38 35 34 37 38 35 33 32 31 26 22 19 18 19 18 19 25 29 31 35 38 40 43 43 47 53 51 55 61 67 73 78 82 83
15 15 14 12 11 10 9 9 7 6 5 5 5 5 5 5 6 7 7 7 7 6 7 6 6 6 6 7 7 7 10 10 8 13 15 14 14 13 11 11 12 13 13 18 16 12 18 27 30 34 41 45 45 41 36 32 32 36 34 32 32 30 29 26 23 21 18 19 18 15 16 19 23 32 38 36 36 40 48 52 52 56 61 66 71 77 82 82
17 16 15 14 13 12 11 10 9 8 7 6 5 5 5 5 5 6 6 7 7 7 7 6 6 6 6 7 7 8 10 10 8 11 13 11 13 14 13 12 12 12 13 15 14 10 10 16 23 26 32 40 40 37 32 28 30 34 32 28 28 28 28 25 24 24 20 18 18 14 14 15 18 27 33 32 37 44 49 54 57 61 66 68 70 76 81 81
19 18 17 16 15 14 12 11 11 10 9 7 7 6 6 5 5 5 5 5 6 7 6 6 6 6 6 6 7 10 9 8 9 9 11 9 11 14 14 14 13 13 13 12 9 9 10 13 19 24 26 30 32 31 27 24 26 30 30 26 25 26 26 25 25 24 21 18 17 15 17 17 14 23 31 31 40 48 51 57 61 64 69 71 71 74 77 79
24 21 19 18 16 16 14 13 12 11 11 9 8 7 7 6 6 5 5 5 5 6 6 7 6 6 7 7 12 15 9 8 9 9 12 11 11 14 14 14 14 13 11 11 9 9 9 10 15 22 26 27 27 24 21 21 20 21 24 24 23 24 24 24 24 24 20 17 16 17 21 18 12 25 39 40 43 48 53 59 62 65 69 72 74 75 75 77
28 24 22 20 18 17 16 14 13 12 12 10 10 9 8 8 7 6 5 5 5 5 5 6 5 6 7 9 18 18 8 9 13 13 15 14 13 14 15 15 14 13 12 10 10 9 9 7 11 22 27 26 23 20 17 16 15 14 15 16 18 21 23 23 22 22 19 17 18 18 22 19 16 30 42 45 47 48 54 60 61 64 68 70 73 75 76 77
29 27 25 22 20 18 17 16 14 13 13 12 11 9 9 8 8 7 5 5 5 5 5 6 6 6 6 10 14 12 8 11 14 12 12 13 15 15 15 16 14 13 12 11 9 8 8 6 10 22 27 23 20 19 16 13 12 11 11 12 13 14 19 21 20 21 18 19 19 18 24 23 21 35 41 44 50 50 55 60 62 64 67 69 71 74 76 77
29 28 25 23 22 19 18 17 15 15 14 13 11 10 9 8 8 8 6 6 4 4 4 5 6 5 9 13 10 8 8 9 9 8 9 9 14 17 16 17 16 15 15 13 10 9 9 7 9 20 25 22 19 17 14 10 9 10 11 12 13 13 16 18 18 19 17 19 18 20 33 31 28 39 42 44 50 51 56 59 60 63 65 67 69 72 75 76
29 27 25 23 22 20 19 17 16 16 14 13 12 10 9 8 9 8 7 6 4 5 5 5 6 6 11 13 8 9 9 9 10 9 9 8 11 15 16 19 20 18 18 17 15 14 12 9 9 17 22 22 18 14 11 9 9 11 11 12 14 17 19 18 17 18 16 19 17 21 36 35 33 42 43 44 48 50 55 57 58 61 62 64 66 69 73 74
29 27 24 22 21 19 19 18 17 16 15 14 11 10 10 9 8 8 8 6 4 5 3 5 7 9 20 17 6 10 12 12 12 8 8 9 10 12 15 22 24 20 17 17 19 18 16 14 13 17 19 18 14 12 11 11 11 11 12 15 15 17 19 15 15 16 16 20 18 23 36 33 33 43 43 44 47 49 53 55 57 58 59 62 63 66 69 70
28 26 23 21 20 18 18 17 17 16 15 13 11 11 9 7 7 7 8 6 6 6 4 12 19 25 35 26 10 13 15 13 11 8 9 8 9 11 13 17 21 21 17 15 17 17 16 15 15 16 16 14 12 11 12 13 15 14 14 17 16 16 17 14 14 15 16 20 19 23 33 31 33 40 41 44 46 48 51 53 54 56 57 59 61 64 65 67
26 24 22 20 18 17 17 17 18 17 15 13 11 9 7 10 13 13 16 19 19 17 11 25 46 47 37 21 14 14 11 11 11 11 11 8 9 11 12 13 16 19 16 14 15 14 14 13 14 15 14 12 11 11 15 17 19 17 16 18 16 15 16 16 16 15 16 21 20 23 28 29 31 36 39 43 44 47 49 50 52 53 54 56 59 61 63 65
25 23 21 19 17 17 15 16 19 17 14 13 9 8 13 21 22 23 30 30 32 34 25 33 49 42 25 15 14 12 8 12 13 12 13 11 9 9 11 12 15 16 14 14 14 12 13 12 13 16 16 14 12 13 17 18 17 16 17 18 17 15 15 16 16 16 18 20 20 24 27 27 28 30 36 42 43 46 47 48 50 52 53 54 57 60 60 62
23 21 20 18 17 17 15 16 19 16 13 11 8 12 22 26 26 35 41 29 30 41 36 38 39 22 14 14 12 11 11 15 16 14 15 13 10 8 11 12 14 15 14 14 14 12 13 13 14 18 19 16 13 13 14 14 14 14 15 16 16 15 15 14 13 14 18 19 21 24 26 27 25 23 32 39 41 43 45 45 48 50 51 52 55 58 58 59
22 20 19 18 17 16 15 15 18 16 11 10 12 16 23 28 30 38 40 26 24 30 25 29 32 21 16 14 9 11 14 15 18 18 15 13 11 8 11 12 13 15 15 15 15 12 12 16 18 18 20 18 14 12 12 12 12 12 13 14 14 15 14 12 11 13 16 19 21 21 23 26 23 20 28 35 37 40 41 42 46 47 48 50 53 55 55 55
22 20 18 18 17 17 15 15 18 16 11 14 18 19 23 30 33 31 30 25 20 20 17 16 22 23 19 14 11 14 18 18 18 19 16 14 12 10 12 12 14 16 16 14 14 12 13 17 18 16 16 17 14 12 11 12 12 12 13 14 15 15 14 12 10 12 14 18 21 20 22 26 24 20 25 31 33 35 38 39 42 45 46 48 51 53 53 52
25 21 18 18 18 18 15 14 17 14 13 18 20 22 26 29 30 28 25 24 19 18 18 14 15 17 14 12 9 12 22 24 18 17 17 15 12 12 13 12 14 16 15 14 14 16 17 18 16 14 14 14 14 13 12 12 12 12 13 14 16 15 14 13 11 11 12 17 22 20 21 26 25 21 24 29 30 32 34 36 39 43 44 46 50 52 52 51
29 24 21 19 18 18 17 16 17 15 16 21 21 25 29 27 27 27 23 22 18 15 15 13 15 14 12 10 8 13 23 25 22 17 15 15 13 12 13 13 15 15 14 15 16 19 21 17 14 13 12 12 13 13 13 13 12 12 13 15 16 14 14 15 13 11 12 16 19 19 23 27 25 25 25 25 26 29 32 33 35 41 42 43 47 49 50 51
31 28 26 21 18 19 17 17 19 18 20 22 22 26 28 26 25 25 25 24 20 17 13 13 13 10 11 10 8 14 20 19 20 17 14 15 13 11 12 13 15 16 15 14 14 17 18 15 12 12 12 12 12 12 13 14 14 13 12 14 14 13 14 15 13 12 13 14 16 23 32 33 29 29 28 24 23 26 30 31 33 38 40 41 44 46 47 48
31 30 29 25 22 18 16 24 28 21 19 21 23 25 25 24 22 23 28 29 25 21 16 14 14 11 10 10 9 12 15 15 15 13 13 15 12 11 12 11 13 16 15 14 14 16 15 12 11 12 12 12 12 12 12 13 14 14 13 12 13 12 13 14 13 13 17 19 18 23 34 41 36 32 30 27 25 26 28 31 32 35 38 40 43 45 46 46
31 30 29 28 26 20 17 24 27 20 16 19 20 21 22 23 20 19 26 35 33 24 17 15 14 12 9 10 11 10 14 15 9 7 11 14 12 11 12 11 12 14 14 13 13 14 13 11 11 13 12 12 12 12 11 11 13 14 13 11 11 12 13 14 13 14 21 23 20 19 28 41 39 33 32 29 28 28 27 29 30 33 36 38 41 44 46 47
30 29 29 29 28 26 23 20 19 17 18 20 18 16 20 21 17 16 25 40 37 20 15 14 11 10 9 9 10 10 12 11 6 6 8 12 13 11 12 12 11 12 11 12 14 13 12 12 12 12 12 12 12 12 11 10 12 13 11 11 12 12 12 13 12 15 21 20 18 17 23 37 40 32 31 31 30 30 29 29 28 29 34 37 39 42 44 46
28 26 26 28 27 29 30 23 16 16 20 23 19 15 17 17 15 21 34 42 31 14 11 12 10 9 8 8 9 8 8 8 8 7 5 10 14 11 12 13 11 12 10 11 16 13 11 13 14 12 13 12 11 11 10 9 10 10 10 11 12 12 12 13 13 15 16 16 19 20 20 34 43 35 30 32 32 32 32 30 28 27 31 35 37 40 43 44
24 24 23 24 24 26 29 26 19 18 23 25 21 17 16 15 15 27 41 38 22 12 10 9 9 9 7 8 9 8 7 7 9 7 5 9 12 11 13 12 11 12 10 10 14 12 10 11 11 12 13 12 11 9 8 9 9 8 9 11 11 11 11 12 14 14 15 18 22 21 19 29 42 40 34 35 35 33 31 30 28 26 27 31 34 37 40 43
22 21 20 21 22 23 27 25 20 20 23 23 22 18 16 18 23 35 43 34 19 13 10 9 10 8 7 9 8 8 8 7 7 8 7 8 11 11 11 11 10 10 10 10 11 10 10 9 9 11 11 11 10 8 7 8 7 7 9 10 10 11 12 14 17 17 17 21 20 17 17 22 33 40 37 34 33 29 28 29 29 28 27 28 31 34 38 41
21 19 19 20 20 23 26 23 20 20 20 21 21 18 19 23 31 43 41 25 17 14 10 11 11 8 8 9 8 8 8 7 7 9 10 9 11 11 10 12 12 11 12 12 11 10 10 9 10 9 8 9 9 8 7 6 6 7 8 11 13 14 14 15 18 19 19 24 23 17 16 18 25 35 35 29 28 26 26 27 28 29 28 27 28 31 34 38
20 17 16 18 20 21 22 22 23 21 19 20 20 21 25 26 30 39 33 19 18 18 13 13 12 9 8 8 8 8 7 7 7 9 11 10 11 11 10 12 14 15 16 13 12 12 11 11 10 9 8 9 9 10 9 7 6 7 8 14 17 17 19 20 20 21 24 30 30 20 17 21 25 31 32 27 26 25 24 24 24 26 28 28 27 28 30 34
20 16 13 14 16 16 15 17 22 23 23 27 26 27 34 37 33 29 22 20 20 15 11 13 13 11 11 9 8 7 7 7 6 7 10 10 11 12 10 10 11 14 17 15 12 13 14 12 10 9 10 8 9 11 10 8 7 7 8 14 19 19 22 26 22 22 26 30 29 18 17 25 25 24 26 25 25 23 21 22 22 23 25 27 27 26 28 31
18 16 13 9 13 22 26 26 23 22 29 34 34 36 39 40 37 26 19 19 16 13 13 14 13 12 11 11 9 7 7 7 6 7 9 10 11 12 10 10 9 9 14 16 13 13 16 17 13 11 10 9 9 9 8 9 7 7 7 9 15 18 20 24 24 26 29 31 27 18 20 25 22 22 24 20 22 23 21 21 21 22 23 24 27 27 27 29
19 15 12 8 20 37 42 38 30 27 35 39 42 49 44 35 32 26 20 17 15 16 16 13 13 13 12 11 10 8 7 7 7 6 9 10 10 11 10 9 9 8 12 15 14 13 14 17 14 10 9 8 9 8 6 7 7 7 7 7 12 16 16 24 31 29 25 25 25 22 27 29 24 23 23 19 20 22 22 21 21 22 23 22 26 27 28 28
22 13 9 12 30 44 45 43 40 37 43 47 52 54 42 28 26 23 21 20 20 20 18 16 16 15 15 14 12 11 8 7 8 8 9 10 9 10 9 8 9 8 9 12 14 14 14 15 12 9 10 8 8 9 6 6 10 9 7 7 11 11 10 19 28 23 16 20 23 21 24 29 24 19 19 20 22 23 24 24 22 23 23 22 24 26 27 29
35 19 8 16 35 44 45 46 48 48 49 55 62 53 36 28 27 25 25 25 22 19 19 22 20 17 18 17 14 13 11 9 10 9 9 10 10 9 8 7 7 7 9 10 12 14 15 16 13 9 11 9 7 9 6 6 9 9 8 7 9 9 8 14 19 17 17 22 24 18 16 21 23 25 24 21 23 25 24 26 24 23 25 23 24 25 25 28
54 31 13 26 44 43 41 46 54 59 55 61 71 60 43 37 31 27 25 23 21 20 21 24 20 16 18 18 16 15 14 14 13 11 12 12 11 9 8 8 7 6 7 8 12 14 13 16 16 11 10 10 8 8 9 8 5 7 8 6 9 12 11 15 18 18 20 20 20 20 20 19 22 29 27 19 22 26 23 26 26 24 26 24 23 24 24 26
64 46 23 29 42 35 32 43 58 66 62 67 75 62 46 38 31 28 26 24 25 24 23 23 20 20 22 22 22 20 19 18 15 15 15 13 12 10 7 7 8 8 6 7 11 13 11 14 17 13 9 9 10 10 12 11 7 7 7 5 9 12 10 13 15 18 22 23 22 21 21 25 28 29 23 16 20 24 22 24 26 24 24 24 23 24 24 25
72 72 39 18 26 28 25 36 55 69 69 67 67 54 43 39 35 32 31 31 30 27 27 27 26 29 28 25 24 23 22 20 17 16 14 13 13 11 10 10 8 7 7 6 8 10 12 15 16 15 12 10 12 12 11 10 9 9 8 8 8 7 9 11 11 14 20 29 35 26 18 29 36 29 21 16 15 18 21 22 23 23 22 22 22 23 24 24
80 92 50 10 22 35 34 39 51 64 67 61 56 50 44 41 38 36 33 32 30 27 28 27 27 29 27 26 28 29 29 28 25 20 15 13 11 12 20 23 17 11 8 8 9 10 11 13 15 16 13 11 12 10 9 9 9 8 9 10 7 8 12 10 10 14 13 22 37 30 19 26 29 21 17 18 15 15 19 20 20 21 20 21 22 21 22 24
88 91 47 14 35 50 50 52 46 47 54 53 50 46 41 40 39 36 32 30 29 27 25 24 25 27 28 31 34 36 38 36 30 24 19 15 14 20 31 33 29 23 15 9 7 9 12 13 15 16 13 12 11 9 8 8 7 8 9 8 8 11 12 11 21 27 16 15 26 26 19 20 24 22 18 18 18 16 17 18 19 19 18 19 21 20 21 22
93 86 44 24 46 57 61 67 57 49 48 41 37 37 35 35 34 29 26 29 32 31 29 28 28 30 32 34 36 37 38 38 35 31 32 32 29 33 35 34 33 30 25 24 18 13 14 14 16 17 14 11 10 9 10 8 7 8 9 8 8 9 8 13 30 35 20 14 20 21 17 15 23 26 16 15 20 18 17 17 17 17 17 18 20 20 21 22
97 88 55 38 50 57 63 71 65 58 50 39 35 35 33 31 30 30 31 33 34 33 32 33 32 32 33 34 36 37 39 45 45 39 40 43 39 36 35 35 35 30 33 45 42 30 22 17 17 20 18 16 15 12 11 11 9 9 9 9 8 8 7 10 22 25 19 19 19 17 15 20 30 27 12 10 15 17 20 19 15 16 16 17 20 20 20 21
94 88 70 56 55 56 60 59 56 57 56 50 48 43 38 36 34 34 34 33 31 31 32 34 33 31 31 34 38 38 38 45 49 44 43 44 41 37 36 37 35 32 38 48 46 39 30 19 16 20 21 22 20 18 20 18 11 8 10 8 7 8 7 7 12 14 19 27 21 16 22 28 32 24 11 8 9 12 20 20 16 16 15 16 20 20 20 20
94 89 76 66 62 58 56 52 53 60 61 59 59 50 42 40 36 31 33 34 32 30 31 32 30 30 32 38 45 45 40 40 45 45 46 47 45 39 38 38 35 36 43 44 38 36 33 25 19 18 19 19 17 18 24 22 12 8 10 8 7 8 5 9 12 11 22 29 19 23 36 29 19 18 14 10 7 7 11 16 20 19 14 15 19 20 21 20
96 89 74 72 74 67 61 58 60 63 61 61 63 54 44 42 38 33 34 34 32 31 30 31 32 34 36 43 51 50 45 44 43 43 45 49 47 40 37 37 36 39 43 40 35 35 39 38 28 20 17 14 13 14 16 15 11 9 10 8 8 8 5 8 10 11 23 23 11 25 41 26 16 22 20 14 11 11 16 25 29 22 14 14 16 18 21 21
93 85 72 75 82 77 73 73 70 65 61 58 55 50 47 44 40 39 37 33 31 30 32 37 37 33 34 44 55 57 54 52 48 44 47 50 47 43 41 37 35 38 38 36 33 34 42 46 36 28 24 15 10 12 11 12 13 10 10 9 8 8 7 8 9 11 19 16 9 27 41 28 20 21 17 16 17 17 22 24 22 22 19 16 15 16 19 21
93 89 80 79 84 82 81 80 72 66 62 57 55 53 51 47 42 39 36 35 35 31 32 39 39 33 36 47 59 65 62 58 55 51 50 50 48 47 49 46 39 37 36 37 35 32 41 51 42 35 35 22 12 12 10 10 12 11 11 10 8 8 7 7 9 10 13 12 11 26 38 31 25 21 15 15 14 13 17 16 18 26 25 17 15 15 16 19
94 93 90 92 93 86 82 77 70 68 65 61 62 57 49 48 48 42 37 38 41 38 34 38 42 42 46 52 60 65 60 55 57 55 51 53 54 50 51 50 44 40 38 40 38 33 40 51 42 35 42 33 15 11 11 10 11 12 13 11 8 9 8 7 8 8 12 13 13 20 27 25 29 34 26 15 13 15 17 21 26 30 28 21 17 17 17 20
95 95 96 100 96 85 84 80 72 76 76 66 65 61 52 51 52 48 44 39 38 41 40 40 45 47 48 53 59 59 53 50 54 51 47 51 53 49 48 46 42 44 44 42 40 38 40 46 40 38 49 44 24 14 12 10 11 12 13 14 11 9 9 9 9 10 12 15 16 19 22 20 24 33 28 15 16 23 23 26 30 31 32 29 22 21 21 19
95 97 95 99 97 86 84 79 70 76 76 63 62 65 57 52 51 53 57 50 40 42 43 42 46 49 51 55 55 50 45 45 47 46 46 49 48 44 45 43 40 42 43 40 40 39 38 43 43 42 51 49 34 23 15 10 15 16 13 13 12 11 11 9 9 11 11 15 19 16 19 24 23 24 25 17 14 22 24 23 25 29 34 29 18 19 22 18
Wind_Speed
17 16 16 16 16 16 16 16 16 17 16 17 17 16 16 16 17 17 17 17 18 18 18 17 17 17 16 17 18 19 20 21 20 22 27 19 9 11 15 18 14 13 17 16 14 18 26 29 28 25 22 21 19 19 20 18 15 9 3 2 3 3 3 4 3 3 3 3 8 13 25 21 11 18 22 22 22 27 22 15 19 13 17 28 26 33 34 31
18 17 17 17 17 18 18 18 17 17 17 17 17 17 17 17 17 17 17 17 18 18 18 17 17 17 16 16 17 18 20 21 23 26 22 13 11 14 19 22 17 13 18 20 19 22 28 31 32 27 23 21 18 19 17 16 16 9 3 2 4 4 4 4 4 4 4 3 10 19 28 24 19 24 24 18 16 20 18 15 21 21 23 26 30 36 32 34
18 18 18 18 18 19 19 19 19 18 18 17 17 18 17 17 18 17 17 17 17 18 18 18 16 16 16 16 16 17 19 20 24 20 9 5 13 19 24 26 20 15 18 23 19 20 25 28 31 27 22 18 17 18 15 14 14 11 7 2 6 7 6 12 13 8 7 4 10 18 25 24 26 30 23 18 16 16 15 19 23 24 29 32 34 36 34 37
19 19 19 19 19 19 20 20 20 20 19 19 18 18 18 18 18 18 18 17 17 17 18 18 17 15 15 16 15 15 17 18 17 9 4 3 4 14 26 27 21 16 18 22 18 16 20 23 26 24 18 15 18 18 13 15 13 9 8 5 7 6 5 15 16 9 8 6 10 19 22 20 27 29 24 23 16 9 16 27 32 33 37 38 37 37 37 38
19 20 20 20 20 20 20 20 20 20 20 20 19 19 18 18 18 18 18 18 17 17 18 18 17 14 14 16 14 13 12 9 5 0 4 5 6 6 20 25 21 17 18 21 18 16 18 21 23 21 17 13 14 14 14 21 16 6 11 15 14 9 4 13 15 9 10 7 10 19 19 19 24 24 28 29 15 11 24 34 38 41 43 43 41 39 38 38
20 20 20 21 21 21 21 21 21 21 21 21 20 20 19 18 18 18 18 18 18 17 17 18 17 14 14 14 14 14 7 4 6 4 4 6 6 5 12 19 21 18 18 19 20 19 20 23 21 19 16 12 11 13 15 23 20 8 11 17 20 19 9 14 17 13 13 7 9 19 20 26 23 17 29 32 21 24 34 38 39 41 44 45 44 41 39 40
20 20 20 21 20 21 21 21 21 21 22 21 21 21 20 20 19 18 19 18 18 17 17 18 17 15 14 13 14 13 11 15 12 8 8 5 6 6 8 14 17 18 19 20 22 22 24 26 22 20 15 10 12 15 17 20 21 14 11 13 20 24 20 21 24 19 15 11 11 22 21 23 20 15 26 24 21 32 36 38 40 40 44 44 43 41 40 41
21 21 21 21 21 21 20 21 21 21 22 21 22 21 21 21 20 20 19 19 19 17 18 18 16 15 13 12 12 12 16 19 7 9 15 12 10 9 9 13 15 17 19 20 23 23 25 26 25 21 11 11 15 15 17 16 16 17 14 14 16 22 27 30 30 25 19 17 15 21 16 17 24 23 22 17 23 35 38 39 40 41 43 43 44 42 40 41
21 21 21 22 21 21 20 21 21 21 21 21 22 21 22 21 20 20 20 20 19 17 18 18 17 16 14 13 11 10 14 9 1 8 14 16 16 14 14 14 15 18 19 21 23 23 25 26 28 26 13 15 19 15 17 12 10 17 20 18 15 18 27 30 29 28 22 18 17 18 11 14 25 21 14 23 34 38 40 41 40 43 42 41 42 42 41 41
22 22 22 23 22 22 22 21 21 21 21 22 22 21 21 21 21 21 21 21 19 18 18 18 17 15 14 14 6 6 11 5 3 7 8 12 18 18 18 16 16 19 21 23 25 25 27 27 31 30 19 16 17 16 17 13 10 16 21 21 20 22 28 28 27 29 22 19 22 16 6 11 24 15 6 24 42 41 41 41 41 43 42 41 40 41 42 41
23 22 22 22 22 23 22 22 22 21 22 22 22 21 21 20 20 20 21 22 20 18 18 18 17 15 15 14 9 10 13 6 1 3 3 6 14 19 20 19 18 19 22 24 26 27 26 28 29 23 14 13 15 16 18 18 16 15 13 13 18 21 25 26 25 26 18 13 24 19 6 9 17 12 11 29 44 45 44 40 41 42 40 41 39 40 42 41
23 23 23 23 22 23 23 23 23 22 23 23 22 22 21 20 19 20 22 22 20 18 18 19 17 16 16 16 23 20 10 5 3 4 5 6 12 16 17 19 17 15 18 22 24 24 23 26 26 18 14 12 11 10 13 18 17 16 13 8 11 12 16 23 23 24 15 9 24 22 6 5 7 12 25 37 42 44 45 41 40 39 39 39 38 39 40 41
24 24 24 23 23 23 23 23 23 23 23 23 23 21 20 19 19 20 21 21 20 18 19 18 17 18 14 18 32 28 16 16 16 16 14 10 12 15 17 19 14 9 10 15 18 19 20 23 23 23 25 17 11 12 14 17 14 12 8 4 7 7 9 20 22 21 13 14 27 21 4 5 5 18 33 39 40 40 39 39 38 37 38 38 37 38 38 39
25 25 25 24 24 23 23 23 22 22 22 23 23 21 19 18 18 20 21 21 20 18 19 18 17 16 14 24 36 29 22 22 22 23 20 16 16 18 20 21 18 12 8 10 11 12 14 18 21 24 27 22 19 20 16 13 9 6 5 4 3 4 6 13 18 15 9 19 32 19 3 6 8 22 36 40 43 41 36 36 38 37 38 38 37 38 38 39
27 26 26 25 25 24 23 23 23 22 23 23 22 20 18 17 18 19 19 20 19 18 19 16 16 13 14 29 35 24 18 18 21 22 21 22 23 24 24 24 24 19 11 11 11 10 10 14 20 20 21 23 21 16 8 5 4 1 2 6 3 4 6 7 14 16 9 17 27 16 3 5 9 23 36 40 42 40 36 35 36 37 38 39 38 38 39 38
29 28 27 27 26 25 24 23 23 23 23 23 22 19 16 17 17 17 18 18 18 17 16 12 11 8 8 20 22 15 13 17 17 16 19 24 25 26 25 23 25 23 16 14 15 15 15 15 18 18 18 17 11 6 4 4 4 1 3 5 4 4 5 4 8 15 14 14 16 11 4 4 9 23 35 39 40 38 34 33 35 37 37 39 38 39 39 37
28 29 29 28 27 26 25 23 23 23 23 22 21 17 15 15 13 12 12 12 13 12 11 7 3 5 12 18 17 14 13 12 11 12 17 24 27 26 23 22 26 28 20 16 17 18 18 16 13 12 13 9 4 4 3 5 5 3 2 4 5 5 5 4 5 8 17 16 12 8 7 7 12 24 33 38 40 36 33 33 35 36 36 38 39 39 39 39
27 28 28 29 28 26 24 23 22 22 22 20 20 18 13 9 10 9 6 6 6 4 6 8 5 2 12 17 16 17 12 8 10 12 13 19 26 28 23 20 24 28 22 15 17 18 15 11 7 5 6 6 5 5 5 7 6 5 6 4 5 5 6 6 4 5 16 18 14 10 9 10 14 23 30 38 41 36 33 35 36 37 37 37 38 39 40 41
26 26 27 28 28 27 24 23 21 21 22 18 16 13 9 10 11 5 3 10 7 2 3 9 11 4 9 12 13 14 11 9 12 14 15 17 23 29 26 19 21 28 19 8 11 15 11 5 6 6 5 6 8 7 8 8 7 9 8 5 5 6 6 7 6 6 14 14 12 12 11 12 16 20 24 34 39 34 33 35 34 35 36 36 38 39 41 42
26 25 25 26 27 27 25 22 20 19 20 16 15 10 10 14 9 2 9 21 22 18 18 19 20 21 23 24 23 19 16 15 13 13 16 17 21 26 26 21 19 22 14 5 7 13 11 5 6 8 6 6 9 9 10 9 9 10 8 6 7 7 7 8 5 4 12 13 11 13 13 13 18 19 21 32 35 29 29 29 30 33 34 36 38 39 42 44
28 26 25 25 26 26 25 22 19 18 16 13 15 13 12 15 9 8 21 27 26 22 25 29 28 33 37 35 32 25 20 18 15 12 15 20 23 20 22 21 12 10 10 9 8 9 11 8 8 9 7 7 7 9 10 10 11 10 9 8 7 7 8 8 6 6 8 10 9 12 12 12 17 17 19 29 26 22 28 29 29 34 35 37 39 41 44 45
29 27 27 27 25 26 25 22 18 16 13 9 11 13 14 17 12 15 21 20 24 23 26 32 33 38 43 40 38 31 19 17 20 16 14 22 28 19 17 18 9 6 8 9 8 6 8 9 10 9 7 8 7 7 10 11 12 10 9 6 7 8 6 7 8 8 8 7 7 12 11 10 16 18 18 25 23 24 36 37 35 38 36 36 39 42 44 43
30 29 29 29 28 26 23 22 19 14 11 8 9 11 13 15 13 18 18 15 24 26 28 33 36 40 42 41 38 30 20 16 20 21 17 21 29 26 19 14 8 7 8 9 9 7 6 7 10 9 7 9 9 9 9 10 10 10 9 6 8 9 4 5 7 6 8 7 7 11 10 6 11 14 14 24 29 29 37 41 40 43 42 41 44 45 45 43
31 31 30 30 31 28 24 23 16 9 10 9 8 8 10 13 12 20 19 10 14 17 22 27 31 38 41 34 27 27 28 23 20 23 22 21 27 27 18 14 11 7 9 12 13 11 7 5 11 12 10 11 11 11 10 7 8 11 12 9 9 10 6 6 7 5 6 5 5 6 2 1 7 11 10 18 25 25 31 36 35 40 45 47 47 47 48 48
32 31 31 31 30 30 28 19 9 9 12 7 5 7 9 12 10 17 16 6 7 9 12 15 21 30 32 24 19 25 27 24 27 30 26 24 27 22 13 16 13 7 11 14 13 12 9 9 14 15 12 13 12 12 12 8 6 9 13 15 15 13 8 8 9 4 3 5 2 7 3 3 5 10 11 12 13 16 23 26 28 35 41 41 42 43 46 49
32 31 31 30 29 32 28 15 11 18 15 5 6 9 10 10 9 12 9 2 5 5 3 5 12 13 16 21 23 20 12 17 33 37 29 26 29 23 11 10 9 8 11 10 7 6 8 11 13 13 14 16 14 11 13 11 6 7 11 14 17 16 11 11 12 4 1 5 4 9 9 4 4 8 10 12 13 14 17 19 24 32 36 37 40 43 45 47
32 31 31 30 28 30 29 21 20 22 15 9 10 9 9 9 8 9 4 2 4 4 5 5 8 5 7 19 29 21 4 9 22 33 38 30 27 26 15 7 6 7 8 6 6 4 8 15 14 14 14 13 12 11 13 13 9 8 8 10 15 17 15 15 13 7 5 5 5 7 6 4 5 9 10 13 16 14 14 17 20 28 36 39 41 44 46 48
31 31 30 29 26 26 27 27 25 21 14 14 13 9 8 6 6 4 2 1 3 2 3 5 6 3 6 19 34 23 3 7 10 24 44 35 25 24 14 10 8 7 9 8 7 5 9 15 16 15 13 10 11 11 13 14 10 9 7 8 12 15 16 15 11 7 6 5 6 6 4 2 4 9 10 11 14 15 16 18 19 24 35 40 42 45 48 51
29 29 29 30 27 23 24 25 23 19 14 14 13 8 6 5 5 3 3 1 3 2 1 5 5 5 12 20 29 22 7 7 3 16 39 36 28 22 11 13 11 6 11 10 8 5 6 14 18 15 12 9 9 11 13 13 10 8 7 8 9 10 11 11 9 7 5 5 8 8 6 4 5 5 9 8 11 14 15 15 17 24 37 42 44 47 48 50
26 27 27 30 28 24 25 20 14 13 14 16 14 7 6 4 2 2 3 3 2 3 1 4 4 11 18 13 13 16 10 6 3 11 29 29 29 24 12 16 13 4 8 10 12 10 6 12 17 14 13 11 10 12 14 15 14 9 7 8 9 9 8 5 4 4 4 5 9 12 11 8 5 5 9 10 12 15 14 13 15 20 32 41 44 47 48 50
26 25 24 28 28 27 28 19 11 14 18 18 14 8 5 2 2 2 5 3 3 5 2 0 1 10 17 12 8 12 10 7 1 10 16 15 19 16 8 11 10 4 5 8 11 11 9 11 9 9 16 16 11 11 13 16 17 11 6 6 6 7 6 5 3 3 5 7 8 11 12 11 8 6 9 14 17 21 18 16 17 16 25 38 44 46 49 50
26 24 22 25 26 26 28 21 14 17 18 13 11 7 1 1 1 4 4 4 2 3 1 3 5 3 7 8 6 11 10 7 5 7 10 10 10 12 10 8 8 7 7 8 8 7 8 10 8 9 16 17 11 8 9 12 14 12 7 6 6 5 4 6 7 4 6 7 6 9 10 10 10 7 11 17 18 19 18 19 22 22 26 36 42 45 48 50
28 26 22 22 24 25 26 22 18 17 13 8 6 3 3 2 4 5 5 3 2 1 7 8 11 10 5 6 4 8 10 8 8 6 9 11 10 11 13 10 9 9 6 6 7 5 4 7 11 11 11 14 14 8 7 8 10 12 9 6 6 6 6 8 7 4 4 5 5 8 7 5 6 6 11 18 19 21 23 26 31 33 34 38 43 46 47 48
28 26 24 22 21 21 20 17 15 12 6 5 3 2 2 5 4 4 7 7 7 6 10 11 15 12 5 4 5 6 6 7 9 7 6 9 9 9 12 12 12 10 3 3 6 7 7 7 10 13 9 10 14 11 9 7 8 11 9 8 7 6 5 5 4 4 5 5 5 5 5 5 5 6 11 18 22 27 30 34 37 38 39 40 41 44 45 47
27 25 25 22 15 19 18 9 7 5 6 7 4 2 5 5 2 1 3 2 6 9 12 12 9 8 5 3 6 7 9 8 8 8 6 8 10 9 10 12 14 11 5 4 4 6 11 9 7 13 12 10 11 10 9 8 7 9 8 8 9 6 4 3 4 6 4 4 5 4 4 5 5 6 9 14 19 24 28 32 32 32 35 35 34 38 43 47
28 23 20 15 11 19 21 7 7 7 7 7 4 3 6 3 1 2 3 6 5 9 14 12 5 3 4 3 4 3 6 8 8 8 7 7 10 11 10 10 14 15 10 7 4 4 8 8 6 10 12 13 14 10 10 11 7 5 8 9 7 8 8 6 5 2 1 4 5 3 4 4 3 5 5 8 13 16 19 22 22 26 32 32 31 35 40 45
30 25 20 13 8 15 20 8 7 10 8 7 4 4 3 2 4 5 7 8 7 7 9 7 4 4 4 2 4 7 7 5 6 7 6 7 8 12 14 10 14 18 14 9 5 3 5 6 6 10 12 17 19 14 11 12 9 5 7 9 5 6 7 5 3 3 4 6 4 4 7 5 3 6 5 5 9 12 14 16 17 22 27 28 31 35 39 44
31 29 23 9 3 10 13 9 5 12 10 5 3 4 2 2 7 11 13 13 9 7 4 2 2 2 3 3 5 8 11 8 3 3 5 6 5 11 15 11 11 18 18 14 6 3 5 5 6 11 14 14 15 13 9 11 12 8 6 8 6 5 7 5 4 6 7 7 5 4 6 6 6 6 5 7 10 12 13 14 15 17 20 25 32 37 39 41
29 27 18 2 3 15 13 6 7 15 10 3 4 4 2 4 7 13 18 16 10 6 4 3 3 4 5 7 8 9 9 7 7 7 3 4 4 10 16 12 11 17 20 18 9 4 5 4 5 7 10 10 8 8 8 9 11 8 5 6 6 5 7 6 4 4 5 6 6 4 3 5 7 6 7 9 11 14 15 15 15 16 21 28 33 36 39 40
25 18 14 8 12 22 18 6 9 15 7 2 4 3 3 5 8 13 19 16 8 4 3 3 6 7 7 8 10 9 8 7 8 7 3 4 7 4 7 6 9 15 20 22 15 7 5 5 5 6 6 8 7 7 12 11 9 9 8 7 6 3 3 5 5 4 5 4 4 4 5 6 5 5 9 11 11 12 15 16 15 17 26 35 38 39 42 43
21 9 14 17 19 24 20 7 5 8 4 4 5 4 6 7 8 13 20 21 13 8 7 7 7 8 8 8 7 6 6 6 7 6 4 5 6 3 10 16 8 7 14 19 15 9 6 4 6 6 6 8 7 7 13 15 12 10 9 9 9 5 4 6 7 5 4 5 5 5 8 8 5 5 8 11 10 10 13 16 16 20 31 38 40 43 46 46
15 7 20 24 23 25 20 7 1 2 3 5 6 6 8 10 9 11 17 18 13 9 10 9 5 4 5 4 4 5 6 5 6 6 6 6 5 3 17 32 27 16 7 11 15 14 11 6 7 9 8 8 9 7 10 16 17 14 11 9 8 5 5 6 7 4 4 6 4 4 8 8 5 7 8 9 10 9 11 14 14 21 33 38 40 45 47 48
11 17 30 27 23 25 15 3 3 2 2 6 9 10 11 10 9 9 9 7 5 5 7 5 5 5 4 5 6 7 7 5 4 6 5 6 9 9 20 37 33 20 12 4 7 9 9 7 7 8 7 8 11 10 7 10 15 14 11 10 9 9 8 6 5 5 4 6 4 4 8 5 2 6 7 7 9 7 9 14 16 19 27 35 40 43 45 47
17 26 31 23 22 20 8 1 3 4 4 8 9 10 11 8 6 6 6 7 6 5 5 4 5 6 5 6 6 6 7 5 5 9 7 5 8 13 24 36 29 13 9 10 9 7 6 7 8 6 6 8 10 10 7 7 9 9 10 13 14 15 13 6 4 4 4 7 7 6 8 4 2 5 8 9 12 8 6 13 19 20 24 32 39 42 45 49
17 18 20 21 24 16 5 4 6 4 7 9 9 9 9 7 9 9 7 6 5 5 5 5 7 9 5 5 5 4 5 3 3 8 9 7 9 11 21 32 25 12 13 21 22 16 8 6 8 8 9 10 10 10 8 6 7 7 10 17 19 18 17 10 4 5 6 5 6 7 7 4 4 5 9 12 15 13 9 8 13 19 24 30 37 42 46 49
11 8 9 18 21 11 7 12 12 7 8 10 8 8 8 7 9 12 10 5 3 6 6 5 7 8 4 5 5 5 6 4 4 7 8 9 9 8 18 27 21 16 23 31 31 18 5 4 7 13 15 13 11 10 7 6 9 11 11 15 19 19 19 13 7 7 6 4 5 7 5 4 6 7 9 13 15 15 12 7 8 15 20 24 30 38 44 48
6 3 5 11 12 7 8 13 13 9 8 8 5 5 9 8 7 10 9 4 7 11 6 2 3 5 5 7 6 4 7 8 8 8 7 8 8 9 14 17 15 21 29 27 26 16 2 5 9 12 16 17 15 12 10 9 10 15 15 14 17 19 20 16 12 9 8 7 10 8 7 6 7 7 9 12 13 12 7 6 9 14 19 22 26 31 36 42
4 5 9 12 8 5 7 12 14 12 10 9 5 5 10 9 6 6 7 6 10 11 5 1 3 5 5 7 5 4 9 11 9 8 6 7 9 10 13 9 8 21 27 18 17 13 3 5 7 10 14 18 20 17 16 13 9 11 16 17 17 19 21 20 17 12 11 9 13 8 9 9 7 7 9 9 10 9 6 10 12 13 18 23 24 27 31 35
6 8 11 12 7 7 11 16 18 14 10 9 7 6 9 9 8 7 6 6 7 8 6 4 5 8 6 4 4 2 6 8 9 8 7 9 10 10 11 7 4 14 20 14 12 11 4 5 7 14 17 15 19 21 20 18 13 10 12 15 17 19 22 22 19 14 13 13 11 8 10 11 7 8 10 10 12 12 10 11 14 13 15 19 22 26 32 37
8 7 9 10 8 9 12 14 13 10 8 8 6 6 8 8 9 10 8 7 6 5 8 8 7 9 6 2 2 2 4 6 11 12 10 8 8 6 5 4 5 10 13 9 10 11 6 6 11 13 13 12 15 21 21 20 18 14 11 13 15 17 19 20 19 15 12 12 8 8 10 10 6 6 8 11 13 12 10 8 14 17 17 18 21 23 27 33
12 11 11 10 6 6 7 7 7 6 5 5 4 6 7 7 10 12 9 9 8 6 8 10 9 8 6 5 4 6 8 9 11 14 13 11 9 6 4 5 8 10 9 7 9 10 6 6 9 9 7 8 10 15 22 21 17 15 14 14 15 15 15 14 13 12 11 9 7 7 7 7 7 6 8 11 9 7 7 8 12 17 17 16 19 22 25 28
13 12 12 8 4 4 5 6 6 4 4 4 4 7 8 8 10 12 8 6 10 13 14 13 10 8 6 7 8 12 15 14 15 19 20 18 17 14 13 14 12 10 8 8 9 10 8 7 7 7 6 8 11 13 16 18 14 13 15 13 12 11 13 14 13 12 12 9 7 8 9 7 8 8 9 11 10 8 9 6 6 13 19 19 19 22 24 24
Wind_Direction
340 339 333 328 327 324 322 321 319 318 318 316 315 313 311 309 309 308 308 307 306 305 304 304 304 305 306 304 299 295 296 294 293 286 277 276 281 258 215 198 203 204 207 198 189 188 183 186 187 182 187 198 208 217 219 220 211 190 171 226 251 252 227 197 202 245 253 161 155 133 122 125 124 119 124 127 131 142 149 156 154 155 152 153 157 159 161 159
340 338 332 330 329 326 325 322 320 318 317 316 315 314 312 311 309 308 307 306 305 305 304 304 305 307 309 305 302 300 296 297 296 289 284 273 254 233 199 199 200 196 209 203 195 193 188 190 189 184 192 206 215 216 217 213 204 188 168 222 233 239 241 243 242 232 258 195 144 133 133 134 136 136 137 134 141 145 134 134 137 131 138 146 155 160 161 160
338 336 331 332 331 329 327 323 321 318 316 315 313 312 312 310 310 309 308 306 305 305 304 304 306 308 309 305 305 304 302 307 301 295 306 280 242 217 191 193 197 195 208 204 199 200 200 197 190 189 199 216 221 214 210 206 205 200 197 234 244 240 260 281 276 250 270 245 150 137 138 140 143 145 146 146 148 147 138 140 138 135 143 149 157 162 162 162
334 332 331 331 330 330 328 325 323 319 317 314 312 311 309 309 308 308 308 307 305 304 304 304 305 310 309 303 305 306 310 315 302 296 4 355 257 211 190 185 190 192 198 202 201 204 209 202 192 195 206 224 227 222 212 203 200 191 202 221 243 236 238 270 271 252 280 266 170 143 140 149 152 150 151 149 145 151 154 154 152 150 152 153 158 163 164 166
333 332 331 329 329 329 327 326 323 320 318 314 313 310 308 308 306 306 306 305 305 304 304 302 305 312 308 302 303 304 316 330 296 198 66 67 69 174 184 181 186 185 189 199 202 200 205 202 198 202 213 229 226 227 226 210 199 186 218 224 237 239 229 263 263 252 269 258 160 144 146 157 157 155 156 154 153 172 169 164 159 157 158 160 162 164 167 170
334 333 331 329 328 328 325 324 323 320 318 315 314 311 308 306 304 305 303 303 303 303 302 300 304 308 307 304 298 297 295 274 252 201 133 112 96 118 166 182 188 190 194 200 208 206 203 205 205 205 214 230 222 222 229 215 203 210 236 229 237 238 240 261 255 249 252 251 155 155 160 159 158 164 166 164 166 171 172 168 162 161 163 163 164 166 169 173
334 334 331 329 328 326 324 322 320 319 317 315 314 312 310 307 304 303 301 301 299 300 301 297 302 304 307 303 294 293 261 259 267 216 199 172 156 157 157 180 186 194 199 203 214 212 209 210 210 212 213 224 226 226 230 217 203 215 243 231 233 236 239 248 250 249 237 244 197 166 163 162 158 168 174 171 163 164 168 167 162 162 163 163 165 168 171 175
335 333 331 329 327 325 323 321 319 316 314 313 312 311 310 307 305 303 300 299 296 298 297 294 300 300 303 300 293 293 270 274 284 190 214 224 210 202 183 184 187 194 198 206 215 213 213 214 214 216 218 229 227 225 228 220 203 213 234 231 231 236 239 242 248 251 234 236 213 167 167 176 165 167 173 162 152 159 162 162 160 159 162 164 166 170 173 176
336 333 331 330 327 325 322 320 318 315 313 310 309 308 308 307 305 304 300 297 295 295 293 291 296 297 299 293 289 289 276 286 19 192 217 229 226 216 205 203 199 200 204 211 215 214 214 215 216 213 216 238 235 235 230 222 207 214 223 227 229 233 241 244 246 250 238 216 189 162 172 187 168 162 159 153 153 157 158 159 159 158 163 167 168 172 175 176
340 337 333 330 328 326 323 320 318 315 313 309 306 304 303 304 304 303 299 296 294 293 290 287 291 294 293 286 266 257 263 273 297 252 229 230 229 219 218 219 213 209 212 215 216 217 217 217 218 215 224 248 249 250 238 230 232 224 221 223 226 227 235 241 242 245 235 194 172 162 179 180 162 147 125 155 155 155 156 157 160 161 165 168 170 173 176 177
342 339 336 332 329 326 323 320 317 315 313 309 306 302 300 300 301 302 298 294 293 293 289 285 289 288 286 276 230 238 261 260 296 245 217 239 228 220 219 218 219 217 218 222 221 221 222 222 220 216 227 248 250 255 254 251 256 256 246 236 233 229 228 234 239 235 227 183 169 164 172 176 155 138 144 156 156 157 156 157 162 165 167 170 172 175 178 180
340 339 337 334 331 327 324 320 317 315 313 310 307 302 300 298 297 297 294 292 291 290 286 285 288 284 285 270 246 248 251 216 229 261 266 254 225 219 217 216 217 215 218 223 224 223 224 227 224 218 225 245 253 254 270 270 272 274 268 266 255 246 228 226 230 224 218 180 166 156 155 197 151 144 153 155 157 157 156 157 163 166 168 172 174 177 180 182
338 338 337 335 332 329 325 320 316 314 312 309 307 304 302 298 295 293 289 288 288 286 284 283 285 284 282 264 255 258 258 253 264 268 260 245 226 223 219 218 212 203 217 221 221 222 224 228 224 223 232 249 269 264 285 295 298 290 269 271 264 272 246 221 220 220 206 176 166 150 161 226 152 151 154 155 156 154 155 160 165 167 169 172 176 179 182 183
339 338 337 335 333 331 327 322 318 315 312 308 305 306 306 300 293 288 285 287 287 283 282 282 285 285 270 261 265 271 273 266 264 258 246 232 224 224 221 218 216 214 228 228 218 212 218 228 225 228 238 246 260 269 288 303 303 305 294 307 248 246 267 221 211 213 187 173 169 151 180 213 151 156 157 157 158 156 158 164 167 169 170 174 177 180 184 186
340 339 337 335 334 331 329 325 321 318 314 307 307 311 309 302 291 285 285 285 285 281 281 285 284 280 270 268 273 280 275 258 253 246 230 221 217 218 216 213 217 219 226 239 235 221 218 227 223 227 245 249 254 264 287 304 291 313 272 294 263 216 262 237 212 207 178 172 170 151 173 187 151 162 161 159 160 159 161 166 169 171 172 176 178 181 185 189
341 340 337 336 334 332 331 327 324 321 315 309 313 317 312 304 293 287 289 286 284 281 278 282 275 263 268 276 280 280 257 243 251 241 217 214 209 210 214 214 220 219 218 233 242 240 234 235 234 236 246 249 247 243 281 305 295 303 187 256 269 246 266 263 227 202 166 164 174 156 161 169 152 166 165 161 163 162 163 168 172 173 174 176 179 182 186 189
342 340 338 337 335 334 332 328 327 322 315 316 321 324 321 311 300 295 296 290 285 275 261 248 253 273 260 265 276 271 249 235 252 241 216 212 205 205 213 215 216 214 211 217 230 239 240 239 242 248 244 238 219 199 244 260 260 280 210 242 261 258 267 263 264 200 159 160 182 165 160 171 158 165 167 165 166 165 165 170 173 175 176 176 179 183 186 189
344 340 338 337 335 335 333 330 330 322 317 323 330 331 331 324 321 318 313 326 316 268 245 218 174 332 265 255 266 271 264 243 257 252 223 212 209 208 207 209 208 206 206 207 217 230 239 236 221 242 246 225 217 189 207 229 226 244 228 232 267 261 257 243 258 197 162 164 177 168 168 175 161 163 169 169 169 168 169 172 174 176 177 177 179 182 187 191
345 342 339 337 336 335 334 333 331 322 319 332 343 340 353 357 343 344 350 337 324 230 250 215 185 199 266 265 269 281 284 264 278 270 229 204 210 211 204 210 209 200 199 196 209 216 220 231 210 225 239 218 225 203 211 234 220 235 238 225 250 262 261 247 252 198 167 167 178 174 173 172 164 165 168 170 171 170 172 173 174 177 178 179 180 184 188 192
347 344 341 338 337 335 334 335 331 322 319 336 1 13 25 7 353 3 323 310 290 272 270 252 231 238 257 266 264 274 285 271 282 273 232 201 198 204 203 210 210 195 189 169 195 207 201 218 226 219 220 213 230 220 215 238 240 248 255 245 246 255 262 259 277 218 172 171 190 184 173 170 170 169 165 168 170 171 173 173 175 178 179 181 183 185 189 195
348 345 344 340 338 336 334 335 329 320 317 330 0 21 21 2 348 320 318 303 287 276 267 261 252 247 255 260 257 268 288 283 272 252 231 209 192 193 200 204 204 193 189 175 181 201 199 219 233 216 213 209 225 227 216 233 247 252 252 256 261 251 260 271 293 273 197 183 202 187 169 171 174 170 165 167 170 174 175 175 177 179 180 183 185 187 191 196
348 346 344 341 340 337 334 335 327 317 312 316 356 17 12 0 355 335 322 299 287 277 263 263 258 252 256 257 255 260 273 277 265 245 220 204 194 187 193 196 196 195 189 180 179 199 208 225 230 215 216 218 230 233 219 228 240 252 251 253 263 253 269 282 280 274 229 199 204 189 176 179 179 172 167 169 174 179 179 178 178 179 181 184 186 189 192 193
347 345 343 341 340 337 335 333 323 312 304 308 349 7 3 357 357 345 330 296 290 280 257 254 250 248 251 250 250 248 239 244 254 243 216 196 191 187 185 187 194 192 183 188 188 195 215 223 217 211 213 220 236 238 224 227 232 245 246 236 254 249 250 270 267 266 235 207 188 189 184 184 181 174 173 176 177 180 182 181 180 181 182 186 189 191 191 191
344 343 342 341 339 337 337 330 320 313 308 309 335 341 342 345 352 350 338 291 284 278 260 256 244 242 244 243 240 225 219 224 232 229 214 196 188 185 187 186 184 189 192 195 195 204 221 197 196 208 213 213 228 235 227 224 227 241 243 233 245 244 225 234 257 290 261 224 163 160 161 279 190 181 185 184 178 178 183 183 183 185 186 188 190 192 192 192
340 340 340 341 339 336 336 333 328 334 323 312 322 305 316 330 344 354 344 296 276 276 272 261 236 239 241 233 223 210 210 221 226 222 213 205 193 179 185 192 186 197 197 192 197 212 222 196 192 205 212 211 219 229 225 217 221 242 242 236 241 245 237 242 262 318 326 275 171 137 164 281 226 196 190 187 181 178 182 184 187 189 190 191 190 192 193 194
336 336 337 338 339 336 335 336 332 331 328 315 308 293 297 317 335 349 351 326 290 259 232 216 209 228 225 205 198 188 186 228 229 222 215 214 201 182 178 189 189 202 191 185 204 217 209 198 199 206 206 209 214 222 225 215 212 236 236 236 243 248 248 253 263 269 245 271 228 176 190 215 233 221 198 184 186 185 182 186 190 190 191 192 192 193 194 195
333 332 334 335 338 338 333 330 325 330 335 317 303 292 294 312 329 342 5 355 295 210 158 179 194 198 197 186 174 159 137 231 223 221 216 214 204 190 188 185 178 194 179 174 218 205 180 193 207 212 205 210 212 215 220 211 212 234 220 219 237 245 248 251 258 250 221 256 256 214 199 159 189 216 207 186 187 189 187 190 192 191 193 194 194 194 195 196
329 327 329 329 333 335 327 320 320 328 332 315 309 300 302 324 329 346 80 334 305 160 153 187 199 207 182 170 168 169 186 154 171 217 212 209 203 190 191 198 179 176 178 183 215 189 165 191 205 210 211 215 213 213 215 209 220 238 210 200 224 234 241 244 250 251 224 228 262 247 198 169 222 210 201 190 187 194 196 195 195 193 194 195 196 196 196 197
325 323 325 323 325 326 315 310 313 318 318 313 314 307 316 345 346 23 109 248 297 317 250 177 187 169 151 156 175 195 217 159 169 208 198 203 208 200 201 200 180 168 193 202 223 199 170 197 198 202 218 218 208 217 217 213 225 232 212 217 233 236 240 240 239 244 223 205 237 236 191 196 269 222 196 197 196 201 201 198 198 195 195 196 196 197 198 198
322 320 322 320 320 320 310 308 314 315 316 317 317 322 346 8 49 72 188 236 292 281 230 161 176 152 145 148 192 214 226 243 297 169 181 195 204 207 212 198 189 180 200 214 229 223 216 212 201 200 218 211 196 211 217 216 221 219 204 221 245 251 252 260 237 214 226 229 229 227 202 192 249 238 196 198 199 199 201 203 203 197 196 197 197 197 198 197
322 320 320 315 317 316 308 309 325 318 314 315 315 321 348 3 90 144 211 254 298 253 242 70 124 137 155 167 190 209 226 260 289 140 169 188 195 202 195 189 198 195 203 225 231 228 229 228 217 207 213 206 194 205 214 216 219 218 197 194 226 248 259 277 267 188 217 239 232 224 210 198 224 239 203 206 203 197 198 201 201 196 197 199 198 198 197 198
324 322 317 309 309 305 298 302 311 307 304 302 300 309 12 138 222 205 234 324 315 221 45 11 5 47 198 206 188 195 204 226 217 159 169 181 190 199 190 187 187 185 211 220 216 221 224 229 237 231 217 205 196 201 212 214 214 215 201 178 198 216 228 240 240 224 223 241 236 212 204 203 220 222 200 207 209 203 203 203 200 197 197 198 198 197 197 197
325 324 318 307 304 300 298 300 295 292 293 273 266 322 74 193 226 201 222 284 280 42 36 360 337 342 284 253 250 206 195 213 218 184 179 186 191 205 210 206 185 188 210 202 199 210 230 235 229 233 230 209 201 196 202 209 206 208 200 178 189 195 207 223 232 254 248 262 252 199 192 214 235 234 200 199 208 208 206 207 205 202 197 196 196 196 195 196
325 326 318 309 312 319 319 306 286 278 265 216 196 76 141 221 229 174 197 242 287 342 25 357 326 322 299 246 242 206 195 229 222 189 179 187 193 207 212 208 197 197 172 150 196 201 214 236 217 215 218 202 207 206 192 179 188 209 199 184 199 194 200 217 210 221 231 265 273 211 195 200 202 229 204 193 203 207 206 208 207 205 201 195 194 194 194 196
327 326 314 311 332 356 352 316 261 235 194 167 127 136 199 214 254 200 198 270 315 334 352 345 319 308 305 260 240 210 195 219 218 202 197 188 197 205 205 207 200 192 171 179 205 196 213 239 226 218 215 198 209 209 182 162 181 210 194 191 210 185 173 227 206 197 200 250 260 222 212 213 206 235 210 194 201 202 205 208 205 205 202 195 190 190 193 196
328 329 315 314 353 9 1 334 198 184 178 148 124 218 221 225 271 263 349 15 1 337 339 341 348 329 315 302 304 266 213 221 209 205 214 200 204 204 202 208 198 195 193 194 207 178 205 237 228 219 227 216 212 203 185 180 180 200 196 199 198 165 180 230 239 230 217 244 242 203 240 280 284 261 230 202 206 200 202 206 202 201 199 194 192 191 193 196
335 332 316 314 351 4 3 1 194 190 176 147 163 231 231 288 314 316 328 334 326 329 340 343 356 341 318 307 337 354 339 290 213 201 212 205 206 200 203 210 199 201 199 192 221 189 179 250 234 207 227 228 217 212 210 197 172 162 199 200 168 155 189 205 221 248 237 245 257 214 234 254 243 249 240 190 203 208 203 201 201 201 196 195 199 199 197 197
337 329 317 320 347 331 353 5 233 202 177 154 216 251 255 290 316 319 312 313 318 323 324 294 261 275 310 326 326 342 345 332 301 286 240 218 209 187 195 206 199 203 200 191 218 226 181 261 262 212 219 227 216 213 226 218 195 181 186 184 168 173 190 179 189 215 216 234 260 241 231 227 217 235 229 194 199 207 204 199 202 202 196 198 203 204 203 200
340 332 317 300 322 317 335 355 224 200 181 164 214 235 267 268 286 294 298 308 316 310 303 280 280 310 330 331 323 325 328 314 309 319 276 243 257 188 186 195 194 200 201 194 205 227 196 229 269 237 217 213 209 202 213 225 212 192 172 181 186 182 188 193 196 191 194 219 241 243 226 233 230 207 195 210 207 199 199 198 200 200 199 202 203 204 204 201
345 336 299 279 319 324 328 324 197 190 192 214 200 224 268 269 280 284 291 302 307 298 304 309 309 310 306 304 305 309 310 295 293 295 266 299 307 226 180 195 194 192 197 200 205 208 194 202 240 273 248 214 209 201 203 207 205 198 189 192 202 192 181 203 209 188 173 184 207 227 234 246 244 191 186 211 215 202 197 195 198 200 201 204 203 202 203 201
348 332 280 302 335 339 337 339 176 187 223 232 212 236 253 258 273 276 277 280 276 272 274 275 283 282 281 296 311 322 319 303 302 296 268 289 297 315 10 2 332 225 202 201 204 200 196 204 220 243 254 227 220 212 204 200 199 203 202 198 196 182 152 192 220 219 194 189 177 204 245 253 236 184 187 209 220 215 200 194 199 201 202 205 204 203 203 203
344 289 286 312 344 354 352 352 256 242 233 243 254 258 258 260 261 261 269 273 273 277 278 275 283 298 309 332 0 354 335 305 303 297 273 302 322 344 4 1 351 333 298 216 206 199 192 199 216 224 238 238 234 230 211 204 200 200 209 204 189 180 162 179 218 231 224 221 168 175 248 259 228 187 185 207 224 224 208 198 200 204 204 205 205 205 205 204
323 294 301 321 350 353 349 333 291 309 246 281 288 276 269 266 261 268 291 315 326 322 312 319 1 12 13 18 8 351 343 319 312 329 310 326 358 15 8 1 354 347 350 317 229 210 200 203 211 221 244 256 251 256 250 217 203 200 208 199 189 201 188 171 191 180 200 222 170 186 241 255 261 203 190 223 240 228 210 203 203 206 204 204 207 207 206 205
312 301 303 325 355 350 335 244 314 310 303 305 304 297 293 298 309 311 338 360 353 329 319 343 2 344 347 17 8 352 353 343 331 348 347 324 341 2 6 359 351 346 2 352 329 310 268 215 191 196 224 239 246 252 251 228 211 207 204 197 200 203 188 175 186 163 208 220 174 190 234 241 294 225 194 231 255 257 229 207 207 210 204 203 206 206 205 207
318 306 299 320 341 341 328 357 348 333 340 338 332 326 321 326 336 341 345 331 316 316 315 325 334 319 321 25 12 337 346 348 321 329 326 317 325 346 0 354 344 335 348 347 339 325 290 227 197 192 204 214 221 227 222 203 204 218 207 198 200 197 188 182 178 188 225 222 174 199 235 251 275 236 200 220 244 256 256 226 218 221 213 206 205 203 203 207
318 310 300 322 334 336 338 356 6 10 352 347 343 330 329 328 323 332 341 325 316 339 320 308 324 317 323 30 11 331 323 315 313 312 305 322 328 329 349 345 329 329 351 353 347 334 287 258 244 215 211 213 211 218 210 170 188 213 211 200 198 198 195 185 177 202 195 168 200 212 193 201 232 219 207 216 230 244 249 246 245 234 219 210 207 204 202 205
307 295 306 325 333 334 337 352 5 360 329 327 323 302 316 323 315 328 339 330 338 342 321 281 348 335 341 11 8 325 318 314 314 309 297 318 318 301 330 335 322 343 359 357 346 340 300 303 296 250 234 220 205 211 209 184 192 207 207 203 198 198 198 194 203 202 146 153 229 217 165 195 235 232 223 219 226 242 241 218 230 224 206 201 205 205 205 206
272 278 303 314 316 326 337 335 335 331 320 318 314 304 317 321 317 326 328 317 326 332 315 231 3 333 333 9 24 328 327 323 312 309 310 326 326 318 332 337 338 358 2 349 339 345 291 265 321 320 284 241 212 208 212 207 200 201 205 204 197 197 199 203 211 192 149 191 231 204 176 206 229 239 242 231 227 241 227 199 206 209 194 188 191 197 202 209
268 275 297 309 311 312 312 309 310 315 320 325 325 313 313 320 329 333 332 329 327 328 326 320 334 339 344 31 56 347 331 322 303 308 322 322 325 329 331 330 357 6 359 339 330 342 304 268 326 338 319 274 226 209 211 217 210 201 210 206 197 198 199 204 212 195 177 210 218 172 188 216 216 220 235 239 236 248 251 211 194 197 191 176 176 186 196 204
271 275 295 308 307 296 293 297 309 317 318 323 316 296 302 321 337 340 341 333 316 320 335 329 333 346 346 2 13 270 262 280 285 297 311 313 323 331 318 316 330 343 348 337 323 329 321 307 324 330 326 299 245 214 209 218 216 207 211 210 204 203 200 204 211 201 195 219 207 167 196 230 240 228 235 244 238 241 253 214 186 196 198 180 173 180 190 200
275 279 293 301 299 297 296 300 311 305 294 308 306 301 315 333 336 334 330 318 313 326 339 332 332 335 317 300 296 265 263 264 266 281 290 287 290 291 276 302 319 323 334 332 314 316 314 302 319 331 324 307 278 231 214 216 220 215 211 207 204 204 204 205 205 196 194 201 186 179 206 237 246 236 240 247 236 214 218 199 185 196 197 183 179 180 183 192
284 288 297 300 292 303 310 300 295 285 284 309 313 304 309 322 330 328 320 313 324 331 331 327 325 324 308 290 280 276 281 279 272 279 284 278 275 271 264 273 283 285 296 309 302 299 301 298 312 332 313 291 301 284 235 214 217 227 217 199 188 198 210 212 209 203 193 173 163 194 213 218 212 204 213 229 228 215 214 206 186 199 195 185 184 186 186 188